TimeCDT,TemperatureF,Dew PointF,Humidity,Sea Level PressureIn,VisibilityMPH,Wind Direction,Wind SpeedMPH,Gust SpeedMPH,PrecipitationIn,Events,Conditions,WindDirDegrees,DateUTC
12:15 AM,44.2,36.5,74,30.08,10.0,Calm,Calm,-,N/A,,Clear,0,2014-03-21 05:15:00
12:35 AM,45.5,36.0,69,30.08,10.0,Calm,Calm,-,N/A,,Clear,0,2014-03-21 05:35:00
12:55 AM,43.5,36.5,76,30.08,10.0,Calm,Calm,-,N/A,,Clear,0,2014-03-21 05:55:00
1:15 AM,43.7,36.1,75,30.08,10.0,Calm,Calm,-,N/A,,Clear,0,2014-03-21 06:15:00
1:35 AM,43.9,35.8,73,30.08,10.0,Calm,Calm,-,N/A,,Clear,0,2014-03-21 06:35:00
1:55 AM,44.1,35.2,71,30.08,10.0,Calm,Calm,-,N/A,,Clear,0,2014-03-21 06:55:00
2:15 AM,43.3,35.6,74,30.08,10.0,Calm,Calm,-,N/A,,Clear,0,2014-03-21 07:15:00
2:35 AM,45.5,34.5,65,30.07,10.0,Calm,Calm,-,N/A,,Clear,0,2014-03-21 07:35:00
2:55 AM,44.8,35.1,69,30.07,10.0,Calm,Calm,-,N/A,,Clear,0,2014-03-21 07:55:00
3:15 AM,43.5,35.6,74,30.07,10.0,Calm,Calm,-,N/A,,Clear,0,2014-03-21 08:15:00
3:35 AM,42.4,36.0,78,30.06,10.0,Calm,Calm,-,N/A,,Clear,0,2014-03-21 08:35:00
3:55 AM,43.9,35.4,72,30.06,10.0,Calm,Calm,-,N/A,,Clear,0,2014-03-21 08:55:00
4:15 AM,42.3,35.4,77,30.06,10.0,Calm,Calm,-,N/A,,Clear,0,2014-03-21 09:15:00
4:35 AM,41.9,34.0,73,30.06,10.0,Calm,Calm,-,N/A,,Clear,0,2014-03-21 09:35:00
4:55 AM,42.3,34.5,74,30.05,10.0,Calm,Calm,-,N/A,,Clear,0,2014-03-21 09:55:00
5:15 AM,41.9,35.2,77,30.04,10.0,Calm,Calm,-,N/A,,Clear,0,2014-03-21 10:15:00
5:35 AM,43.2,34.5,72,30.05,10.0,Calm,Calm,-,N/A,,Clear,0,2014-03-21 10:35:00
5:55 AM,42.8,34.3,72,30.05,10.0,Calm,Calm,-,N/A,,Clear,0,2014-03-21 10:55:00
6:15 AM,42.1,35.4,77,30.05,10.0,Calm,Calm,-,N/A,,Clear,0,2014-03-21 11:15:00
6:35 AM,42.1,36.0,79,30.05,10.0,Calm,Calm,-,N/A,,Clear,0,2014-03-21 11:35:00
6:55 AM,43.9,35.4,72,30.06,10.0,Calm,Calm,-,N/A,,Clear,0,2014-03-21 11:55:00
7:15 AM,44.4,35.6,71,30.06,10.0,Calm,Calm,-,N/A,,Clear,0,2014-03-21 12:15:00
7:35 AM,46.9,34.9,63,30.06,10.0,Calm,Calm,-,N/A,,Clear,0,2014-03-21 12:35:00
7:55 AM,48.6,36.0,62,30.06,10.0,Calm,Calm,-,N/A,,Clear,0,2014-03-21 12:55:00
8:15 AM,52.0,35.8,54,30.06,10.0,Calm,Calm,-,N/A,,Clear,0,2014-03-21 13:15:00
8:35 AM,54.5,35.1,48,30.07,10.0,Calm,Calm,-,N/A,,Clear,0,2014-03-21 13:35:00
8:55 AM,55.6,36.0,48,30.07,10.0,South,3.5,-,N/A,,Clear,170,2014-03-21 13:55:00
9:15 AM,58.3,36.5,44,30.07,10.0,South,5.8,-,N/A,,Clear,170,2014-03-21 14:15:00
9:35 AM,60.8,34.2,37,30.07,10.0,South,6.9,-,N/A,,Clear,180,2014-03-21 14:35:00
9:55 AM,62.8,33.3,33,30.07,10.0,SSE,6.9,-,N/A,,Clear,160,2014-03-21 14:55:00
10:15 AM,64.6,35.6,34,30.07,10.0,South,4.6,-,N/A,,Clear,190,2014-03-21 15:15:00
10:35 AM,66.4,36.0,33,30.07,10.0,South,6.9,-,N/A,,Clear,170,2014-03-21 15:35:00
10:55 AM,68.7,36.1,30,30.06,10.0,SSE,5.8,-,N/A,,Clear,160,2014-03-21 15:55:00
11:15 AM,70.7,37.8,30,30.06,10.0,South,5.8,-,N/A,,Clear,170,2014-03-21 16:15:00
11:35 AM,71.8,39.2,31,30.05,10.0,SSE,3.5,-,N/A,,Clear,150,2014-03-21 16:35:00
11:55 AM,73.6,39.9,30,30.05,10.0,South,11.5,20.7,N/A,,Clear,190,2014-03-21 16:55:00
12:15 PM,74.8,40.6,29,30.04,10.0,South,6.9,-,N/A,,Clear,190,2014-03-21 17:15:00
12:35 PM,75.6,39.7,28,30.03,10.0,South,9.2,21.9,N/A,,Clear,170,2014-03-21 17:35:00
12:55 PM,76.8,39.6,26,30.02,10.0,SSW,11.5,19.6,N/A,,Clear,200,2014-03-21 17:55:00
1:15 PM,77.7,40.5,26,30.01,10.0,South,9.2,23.0,N/A,,Clear,170,2014-03-21 18:15:00
1:35 PM,77.7,41.7,28,30.00,10.0,South,11.5,18.4,N/A,,Clear,180,2014-03-21 18:35:00
1:55 PM,78.4,42.8,28,29.99,10.0,South,8.1,17.3,N/A,,Clear,180,2014-03-21 18:55:00
2:15 PM,79.0,43.9,29,29.97,10.0,South,9.2,17.3,N/A,,Clear,190,2014-03-21 19:15:00
2:35 PM,79.5,43.5,28,29.96,10.0,SSE,10.4,18.4,N/A,,Clear,160,2014-03-21 19:35:00
2:55 PM,80.1,43.5,27,29.95,10.0,SSE,13.8,21.9,N/A,,Clear,160,2014-03-21 19:55:00
3:15 PM,80.2,43.3,27,29.95,10.0,South,10.4,19.6,N/A,,Clear,190,2014-03-21 20:15:00
3:35 PM,79.7,43.2,27,29.94,10.0,South,9.2,19.6,N/A,,Clear,180,2014-03-21 20:35:00
3:55 PM,79.3,42.4,27,29.94,10.0,South,11.5,17.3,N/A,,Clear,180,2014-03-21 20:55:00
4:15 PM,81.9,40.8,23,29.93,7.0,SSW,9.2,-,N/A,,Clear,200,2014-03-21 21:15:00
4:35 PM,80.4,40.1,24,29.92,10.0,SSW,10.4,19.6,N/A,,Clear,210,2014-03-21 21:35:00
4:55 PM,81.1,39.4,23,29.91,10.0,South,11.5,16.1,N/A,,Clear,170,2014-03-21 21:55:00
5:15 PM,80.8,39.6,23,29.91,10.0,South,10.4,17.3,N/A,,Clear,190,2014-03-21 22:15:00
5:35 PM,79.2,40.5,25,29.91,10.0,SSW,9.2,18.4,N/A,,Clear,200,2014-03-21 22:35:00
5:55 PM,79.7,41.9,26,29.90,10.0,SSW,11.5,-,N/A,,Clear,200,2014-03-21 22:55:00
6:15 PM,77.7,44.4,31,29.91,10.0,South,6.9,-,N/A,,Clear,170,2014-03-21 23:15:00
6:35 PM,77.2,46.4,34,29.91,7.0,South,5.8,-,N/A,,Clear,190,2014-03-21 23:35:00
6:55 PM,75.6,47.5,37,29.92,7.0,South,4.6,-,N/A,,Clear,170,2014-03-21 23:55:00
7:15 PM,72.9,48.2,42,29.92,10.0,Calm,Calm,-,N/A,,Clear,0,2014-03-22 00:15:00
7:35 PM,71.1,48.7,45,29.92,10.0,South,4.6,-,N/A,,Clear,170,2014-03-22 00:35:00
7:55 PM,69.8,49.1,48,29.92,10.0,Calm,Calm,-,N/A,,Clear,0,2014-03-22 00:55:00
8:15 PM,69.1,49.1,49,29.93,10.0,South,3.5,-,N/A,,Clear,170,2014-03-22 01:15:00
8:35 PM,68.7,49.5,50,29.93,10.0,South,3.5,-,N/A,,Clear,170,2014-03-22 01:35:00
8:55 PM,68.9,49.6,50,29.94,10.0,Calm,Calm,-,N/A,,Clear,0,2014-03-22 01:55:00
9:15 PM,68.5,50.0,52,29.94,10.0,South,3.5,-,N/A,,Clear,170,2014-03-22 02:15:00
9:35 PM,68.7,50.2,52,29.96,10.0,South,3.5,-,N/A,,Clear,180,2014-03-22 02:35:00
9:55 PM,70.2,50.9,50,29.97,10.0,South,5.8,-,N/A,,Clear,190,2014-03-22 02:55:00
10:15 PM,70.3,50.9,50,29.97,10.0,South,4.6,-,N/A,,Clear,190,2014-03-22 03:15:00
10:35 PM,70.0,50.9,51,29.98,10.0,SSW,5.8,-,N/A,,Clear,200,2014-03-22 03:35:00
10:55 PM,69.1,51.1,53,29.98,10.0,South,4.6,-,N/A,,Clear,190,2014-03-22 03:55:00
11:15 PM,68.7,51.1,53,29.98,10.0,Calm,Calm,-,N/A,,Mostly Cloudy,0,2014-03-22 04:15:00
11:35 PM,68.5,51.4,54,29.99,10.0,South,3.5,-,N/A,,Overcast,170,2014-03-22 04:35:00
11:55 PM,68.0,51.8,56,29.99,10.0,South,4.6,-,N/A,,Mostly Cloudy,190,2014-03-22 04:55:00